Content
SEND FEEDBACK

Daily
Averages
Monthly
Summary
United States of America

NAPERVILLE, ILLINOIS


Home > North America > United States > Illinois
Elevation: 687 feet     Latitude: 41 49N     Longitude: 088 04W

WEATHER
 
SELECT A DAY
Number of Records: 199,855;   Date Range: 1/1/95 - 10/29/14
 
SHARE

PRINT THIS DATA

[ ← Previous Day ]
WEATHER ALMANAC - JANUARY 20, 2013
[ Next Day → ]
[ °C ]   °F
Weather ElementAverageHighLow
Temperature18.3 °F24.1 °F (1:51 am)14 °F (7:51 am)
Dewpoint-0.5 °F11.3 °F (11:51 am)-16.1 °F (2:51 am)
Humidity46.5 %72 % (11:51 am)17 % (2:51 am)
Barometer30.23 in30.30 in (9:51 am)30.03 in (1:51 am)
Wind Speed13.3 mph24.2 mph (2:51 am)
Wind Gust29.9 mph (1:51 am)
Weather ElementAverage
Visibility10 mi
Wind DirectionWNW (294.8 °)

Weather ElementTotal
Precipitation---
Heating Degree Days46 (Base 65)
Averaged from 23 records on January 20, 2013
WEATHER CONDITIONS BREAKOUT
WIND DIRECTION BREAKOUT
WEATHER BY HOUR - JANUARY 20, 2013
[ °C ]   °F
Local TimeTemperatureDewpointHumidityBarometerVisibilityWind DirectionWind SpeedGust SpeedPrecipitationEventsConditions
1:51 AM24.1 °F-6.0 °F27 %30.03 in10.0 miWNW (290°)23.0 mph29.9 mphPartly Cloudy
2:51 AM23.0 °F-16.1 °F17 %30.08 in10.0 miNW (310°)24.2 mph29.9 mphClear
3:51 AM19.9 °F-11.0 °F25 %30.14 in10.0 miWNW (300°)17.3 mph24.2 mphClear
4:51 AM18.0 °F-13.9 °F24 %30.16 in10.0 miWNW (300°)15.0 mph21.9 mphClear
5:51 AM19.0 °F-15.0 °F21 %30.19 in10.0 miNW (310°)16.1 mph20.7 mphClear
6:51 AM17.1 °F-9.4 °F31 %30.22 in10.0 miNW (310°)15.0 mphClear
7:51 AM14.0 °F3.2 °F62 %30.25 in10.0 miWNW (300°)12.7 mphScattered Clouds
8:51 AM14.0 °F3.7 °F64 %30.29 in10.0 miWNW (290°)16.1 mph21.9 mphMostly Cloudy
9:51 AM16.5 °F-4.5 °F39 %30.30 in10.0 miWNW (290°)11.5 mphMostly Cloudy
10:51 AM19.0 °F8.6 °F64 %30.29 in10.0 miWNW (290°)15.0 mphMostly Cloudy
11:51 AM19.0 °F11.3 °F72 %30.28 in10.0 miWNW (290°)11.5 mphMostly Cloudy
12:51 PM22.8 °F11.3 °F61 %30.26 in10.0 miNW (310°)12.7 mphMostly Cloudy
1:51 PM20.8 °F9.3 °F61 %30.25 in10.0 miNW (310°)9.2 mphMostly Cloudy
2:51 PM21.2 °F1.4 °F42 %30.23 in10.0 miWNW (290°)8.1 mphMostly Cloudy
3:51 PM19.9 °F1.9 °F46 %30.27 in10.0 miWest (280°)11.5 mphMostly Cloudy
4:51 PM19.0 °F1.9 °F47 %30.26 in10.0 miWNW (300°)10.4 mphMostly Cloudy
5:51 PM18.0 °F1.9 °F50 %30.27 in10.0 miWNW (290°)9.2 mphScattered Clouds
6:51 PM17.1 °F3.0 °F54 %30.27 in10.0 miWNW (290°)9.2 mphMostly Cloudy
7:51 PM17.1 °F1.9 °F52 %30.26 in10.0 miWNW (290°)10.4 mphMostly Cloudy
8:51 PM16.0 °F1.9 °F54 %30.25 in10.0 miWNW (290°)11.5 mphMostly Cloudy
9:51 PM16.0 °F1.0 °F52 %30.24 in10.0 miWNW (290°)13.8 mphMostly Cloudy
10:51 PM15.1 °F1.0 °F54 %30.23 in10.0 miWest (280°)9.2 mphMostly Cloudy
11:51 PM15.1 °F0.0 °F51 %30.22 in10.0 miWest (280°)12.7 mphMostly Cloudy
Hourly data recorded from KORD, located miles away from Naperville, Illinois







STORIES FROM OUR PARTNERS